TimeEDT,TemperatureF,Dew PointF,Humidity,Sea Level PressureIn,VisibilityMPH,Wind Direction,Wind SpeedMPH,Gust SpeedMPH,PrecipitationIn,Events,Conditions,WindDirDegrees,DateUTC
12:33 AM,46.4,37.4,71,29.83,10.0,West,8.1,-,N/A,,Mostly Cloudy,260,2012-10-16 04:33:00
12:54 AM,46.0,37.9,73,29.85,10.0,WNW,12.7,17.3,N/A,,Mostly Cloudy,290,2012-10-16 04:54:00
1:54 AM,46.0,37.0,71,29.86,10.0,West,6.9,-,N/A,,Mostly Cloudy,280,2012-10-16 05:54:00
2:54 AM,46.0,36.0,68,29.87,10.0,NW,8.1,-,N/A,,Mostly Cloudy,310,2012-10-16 06:54:00
3:54 AM,45.0,36.0,71,29.88,10.0,West,8.1,-,N/A,,Overcast,280,2012-10-16 07:54:00
4:54 AM,45.0,37.9,76,29.88,10.0,West,8.1,-,0.00,Rain,Light Rain,270,2012-10-16 08:54:00
5:54 AM,45.0,37.0,74,29.88,10.0,WNW,6.9,-,0.00,Rain,Light Rain,300,2012-10-16 09:54:00
6:54 AM,44.1,37.0,76,29.90,10.0,WNW,6.9,-,0.00,,Mostly Cloudy,290,2012-10-16 10:54:00
7:54 AM,44.6,37.4,76,29.90,10.0,West,5.8,-,N/A,,Mostly Cloudy,280,2012-10-16 11:54:00
8:54 AM,45.0,36.0,71,29.93,10.0,WNW,6.9,-,N/A,,Mostly Cloudy,300,2012-10-16 12:54:00
9:54 AM,46.0,35.1,66,29.95,10.0,WNW,11.5,-,N/A,,Mostly Cloudy,300,2012-10-16 13:54:00
10:54 AM,48.0,35.1,61,29.94,10.0,West,9.2,-,N/A,,Mostly Cloudy,270,2012-10-16 14:54:00
11:54 AM,46.9,35.1,63,29.95,10.0,NW,9.2,-,N/A,,Mostly Cloudy,320,2012-10-16 15:54:00
12:54 PM,48.0,35.1,61,29.94,10.0,WNW,8.1,-,N/A,,Mostly Cloudy,300,2012-10-16 16:54:00
1:54 PM,48.0,34.0,58,29.91,10.0,West,9.2,-,N/A,,Mostly Cloudy,260,2012-10-16 17:54:00
2:54 PM,51.1,35.1,54,29.91,10.0,SW,15.0,-,N/A,,Mostly Cloudy,230,2012-10-16 18:54:00
3:54 PM,51.1,36.0,56,29.90,10.0,SW,13.8,18.4,N/A,,Mostly Cloudy,230,2012-10-16 19:54:00
4:54 PM,51.1,36.0,56,29.89,10.0,WSW,17.3,21.9,N/A,,Mostly Cloudy,240,2012-10-16 20:54:00
5:54 PM,48.9,37.0,64,29.89,10.0,West,9.2,-,N/A,,Mostly Cloudy,270,2012-10-16 21:54:00
6:54 PM,48.0,37.9,68,29.89,10.0,West,6.9,-,N/A,,Mostly Cloudy,260,2012-10-16 22:54:00
7:47 PM,46.4,37.4,71,29.88,10.0,West,4.6,-,N/A,,Scattered Clouds,280,2012-10-16 23:47:00
7:54 PM,46.9,37.9,71,29.89,10.0,WNW,4.6,-,N/A,,Scattered Clouds,290,2012-10-16 23:54:00
8:54 PM,46.0,37.0,71,29.89,10.0,Calm,Calm,-,N/A,,Scattered Clouds,0,2012-10-17 00:54:00
9:54 PM,46.0,37.0,71,29.89,10.0,SSE,3.5,-,N/A,,Partly Cloudy,150,2012-10-17 01:54:00
10:54 PM,43.0,37.0,80,29.89,10.0,SSE,5.8,-,N/A,,Partly Cloudy,150,2012-10-17 02:54:00
11:54 PM,42.1,37.0,82,29.90,10.0,SSE,5.8,-,N/A,,Scattered Clouds,160,2012-10-17 03:54:00